| time (UTC) | temp F | wind direction | speed MPH | gust MPH | rain 1hr in | rain 24hr in | rain mn in | humidity % | barometer mb |
| 20260507040017 | 61 | 0.0 | 0.0 | 0.00 | 0.12 | 0.12 | 86 | 1009.7 | |
| 20260507035016 | 62 | 0.0 | 0.0 | 0.00 | 0.12 | 0.12 | 86 | 1010.0 | |
| 20260507034016 | 62 | 0.0 | 0.0 | 0.00 | 0.12 | 0.12 | 88 | 1009.8 | |
| 20260507033016 | 62 | 0.0 | 0.0 | 0.00 | 0.12 | 0.12 | 88 | 1009.4 | |
| 20260507032036 | 63 | 0.0 | 0.0 | 0.00 | 0.12 | 0.12 | 87 | 1009.5 | |
| 20260507031036 | 63 | 0.0 | 0.0 | 0.00 | 0.12 | 0.12 | 86 | 1009.5 | |
| 20260507030016 | 63 | 0.0 | 0.0 | 0.00 | 0.12 | 0.12 | 85 | 1009.4 | |
| 20260507025016 | 64 | 0.0 | 0.0 | 0.00 | 0.12 | 0.12 | 85 | 1009.3 | |
| 20260507024016 | 64 | 0.0 | 0.0 | 0.00 | 0.12 | 0.12 | 88 | 1008.8 | |
| 20260507023036 | 65 | 0.0 | 0.0 | 0.00 | 0.12 | 0.12 | 92 | 1009.0 | |
| 20260507022038 | 65 | 0.0 | 0.0 | 0.00 | 0.12 | 0.12 | 93 | 1009.3 | |
| 20260507021037 | 65 | 0.0 | 0.0 | 0.00 | 0.12 | 0.12 | 93 | 1009.2 | |
| 20260507020018 | 65 | 0.0 | 0.0 | 0.00 | 0.12 | 0.12 | 93 | 1009.3 | |
| 20260507015018 | 65 | 0.0 | 0.0 | 0.00 | 0.12 | 0.12 | 92 | 1009.3 | |
| 20260507014017 | 65 | 0.0 | 0.0 | 0.00 | 0.12 | 0.12 | 92 | 1009.6 | |
| 20260507013038 | 65 | 0.0 | 0.0 | 0.00 | 0.12 | 0.12 | 92 | 1009.3 | |
| 20260507012017 | 65 | 0.0 | 0.0 | 0.00 | 0.12 | 0.12 | 91 | 1009.2 | |
| 20260507011017 | 65 | 0.0 | 0.0 | 0.00 | 0.12 | 0.12 | 91 | 1009.0 | |
| 20260507010017 | 65 | 0.0 | 0.0 | 0.00 | 0.12 | 0.12 | 91 | 1009.1 | |
| 20260507005017 | 65 | 0.0 | 0.0 | 0.00 | 0.12 | 0.12 | 91 | 1008.8 | |
| 20260507004017 | 65 | 0.0 | 0.0 | 0.00 | 0.12 | 0.12 | 91 | 1008.8 | |
| 20260507003017 | 65 | 0.0 | 0.0 | 0.00 | 0.12 | 0.12 | 91 | 1008.9 | |
| 20260507002037 | 65 | 0.0 | 0.0 | 0.00 | 0.12 | 0.12 | 90 | 1009.0 | |
| 20260507001017 | 66 | 0.0 | 0.0 | 0.00 | 0.12 | 0.12 | 90 | 1008.7 | |
| 20260507000037 | 66 | 0.0 | 0.0 | 0.00 | 0.12 | 0.12 | 89 | 1008.5 | |
| 20260506235017 | 66 | 0.0 | 0.0 | 0.00 | 0.12 | 0.12 | 89 | 1008.3 | |
| 20260506234017 | 66 | 0.0 | 0.0 | 0.00 | 0.12 | 0.12 | 89 | 1008.2 | |
| 20260506233017 | 67 | 0.0 | 0.0 | 0.00 | 0.12 | 0.12 | 89 | 1008.1 | |
| 20260506232017 | 67 | 0.0 | 0.0 | 0.00 | 0.12 | 0.12 | 89 | 1008.3 | |
| 20260506231017 | 67 | 0.0 | 0.0 | 0.00 | 0.12 | 0.12 | 89 | 1008.4 | |
| 20260506230037 | 67 | 0.0 | 0.0 | 0.00 | 0.12 | 0.12 | 89 | 1008.3 | |
| 20260506225017 | 67 | 0.0 | 0.0 | 0.00 | 0.12 | 0.12 | 89 | 1008.2 | |
| 20260506224017 | 67 | 0.0 | 0.0 | 0.00 | 0.12 | 0.12 | 89 | 1008.3 | |
| 20260506223017 | 67 | 0.0 | 0.0 | 0.00 | 0.12 | 0.12 | 89 | 1008.3 | |
| 20260506222017 | 67 | 0.0 | 0.0 | 0.00 | 0.12 | 0.12 | 88 | 1008.2 | |
| 20260506221017 | 67 | 0.0 | 0.0 | 0.00 | 0.12 | 0.12 | 89 | 1008.2 | |
| 20260506220017 | 67 | 0.0 | 0.0 | 0.00 | 0.12 | 0.12 | 90 | 1008.2 | |
| 20260506215017 | 67 | 0.0 | 0.0 | 0.00 | 0.12 | 0.12 | 89 | 1008.0 | |
| 20260506214017 | 67 | 0.0 | 0.0 | 0.00 | 0.12 | 0.12 | 89 | 1008.0 | |
| 20260506213017 | 67 | 0.0 | 0.0 | 0.00 | 0.12 | 0.12 | 89 | 1008.0 | |
| 20260506212017 | 67 | 0.0 | 0.0 | 0.00 | 0.12 | 0.12 | 89 | 1007.9 | |
| 20260506211017 | 67 | 0.0 | 0.0 | 0.00 | 0.12 | 0.12 | 88 | 1007.9 | |
| 20260506210017 | 67 | 0.0 | 0.0 | 0.00 | 0.12 | 0.12 | 88 | 1007.9 | |
| 20260506205037 | 68 | 0.0 | 0.0 | 0.00 | 0.12 | 0.12 | 87 | 1007.9 | |
| 20260506204017 | 68 | 0.0 | 0.0 | 0.00 | 0.12 | 0.12 | 90 | 1007.7 | |
| 20260506203017 | 68 | 0.0 | 0.0 | 0.00 | 0.12 | 0.12 | 89 | 1007.8 | |
| 20260506202017 | 67 | 0.0 | 0.0 | 0.00 | 0.12 | 0.12 | 87 | 1007.7 | |
| 20260506201017 | 68 | 0.0 | 0.0 | 0.00 | 0.12 | 0.12 | 88 | 1007.7 | |
| 20260506200017 | 68 | 0.0 | 0.0 | 0.00 | 0.12 | 0.12 | 90 | 1007.6 | |
| 20260506195017 | 67 | 0.0 | 0.0 | 0.00 | 0.12 | 0.12 | 92 | 1007.6 | |
| 20260506194017 | 66 | 0.0 | 0.0 | 0.00 | 0.12 | 0.12 | 93 | 1007.7 | |
| 20260506193017 | 65 | 0.0 | 0.0 | 0.00 | 0.12 | 0.12 | 94 | 1007.9 | |
| 20260506192016 | 65 | 0.0 | 0.0 | 0.00 | 0.12 | 0.12 | 94 | 1008.0 | |
| 20260506191016 | 64 | 0.0 | 0.0 | 0.00 | 0.12 | 0.12 | 94 | 1008.3 | |
| 20260506190018 | 64 | 0.0 | 0.0 | 0.00 | 0.12 | 0.12 | 95 | 1008.3 | |
| 20260506185016 | 64 | 0.0 | 0.0 | 0.00 | 0.12 | 0.12 | 95 | 1008.3 | |
| 20260506184017 | 63 | 0.0 | 0.0 | 0.00 | 0.12 | 0.12 | 95 | 1008.4 | |
| 20260506183016 | 63 | 0.0 | 0.0 | 0.00 | 0.12 | 0.12 | 95 | 1008.4 | |
| 20260506182017 | 63 | 0.0 | 0.0 | 0.00 | 0.12 | 0.12 | 96 | 1008.5 | |
| 20260506181016 | 63 | 0.0 | 0.0 | 0.00 | 0.12 | 0.12 | 96 | 1008.6 | |
| 20260506180016 | 62 | 0.0 | 0.0 | 0.00 | 0.12 | 0.12 | 96 | 1008.6 | |
| 20260506175017 | 62 | 0.0 | 0.0 | 0.00 | 0.12 | 0.12 | 96 | 1008.7 | |
| 20260506174016 | 62 | 0.0 | 0.0 | 0.00 | 0.12 | 0.12 | 96 | 1008.8 | |
| 20260506173036 | 62 | 0.0 | 0.0 | 0.00 | 0.12 | 0.12 | 96 | 1008.7 | |
| 20260506172016 | 62 | 0.0 | 0.0 | 0.00 | 0.12 | 0.12 | 96 | 1008.7 | |
| 20260506171037 | 62 | 0.0 | 0.0 | 0.01 | 0.12 | 0.12 | 96 | 1008.8 | |
| 20260506170016 | 62 | 0.0 | 0.0 | 0.01 | 0.12 | 0.12 | 96 | 1009.0 | |
| 20260506165016 | 61 | 0.0 | 0.0 | 0.02 | 0.12 | 0.12 | 96 | 1009.0 | |
| 20260506164016 | 61 | 0.0 | 0.0 | 0.03 | 0.12 | 0.12 | 95 | 1009.0 | |
| 20260506163036 | 62 | 0.0 | 0.0 | 0.04 | 0.12 | 0.12 | 95 | 1009.0 | |
| 20260506162017 | 62 | 0.0 | 0.0 | 0.05 | 0.12 | 0.12 | 96 | 1009.2 | |
| 20260506161016 | 62 | 0.0 | 0.0 | 0.05 | 0.11 | 0.11 | 96 | 1009.3 | |
| 20260506160016 | 61 | 0.0 | 0.0 | 0.05 | 0.11 | 0.11 | 96 | 1009.2 | |
| 20260506155016 | 61 | 0.0 | 0.0 | 0.05 | 0.10 | 0.10 | 95 | 1009.3 | |
| 20260506154016 | 61 | 0.0 | 0.0 | 0.05 | 0.09 | 0.09 | 95 | 1009.8 | |
| 20260506153016 | 61 | 0.0 | 0.0 | 0.04 | 0.08 | 0.08 | 94 | 1009.9 | |
| 20260506152016 | 61 | 0.0 | 0.0 | 0.04 | 0.07 | 0.07 | 94 | 1009.9 | |
| 20260506151016 | 61 | 0.0 | 0.0 | 0.04 | 0.06 | 0.06 | 94 | 1010.1 | |
| 20260506150036 | 61 | 0.0 | 0.0 | 0.05 | 0.06 | 0.06 | 94 | 1010.0 | |
| 20260506145016 | 61 | 0.0 | 0.0 | 0.05 | 0.05 | 0.05 | 93 | 1009.7 | |
| 20260506144016 | 62 | 0.0 | 0.0 | 0.04 | 0.04 | 0.04 | 93 | 1009.9 | |
| 20260506143016 | 62 | 0.0 | 0.0 | 0.04 | 0.04 | 0.04 | 91 | 1009.9 | |
| 20260506142016 | 62 | 0.0 | 0.0 | 0.03 | 0.03 | 0.03 | 90 | 1010.2 | |
| 20260506141016 | 63 | 0.0 | 0.0 | 0.02 | 0.02 | 0.02 | 89 | 1010.3 | |
| 20260506140036 | 63 | 0.0 | 0.0 | 0.01 | 0.01 | 0.01 | 87 | 1010.2 | |
| 20260506135016 | 64 | 0.0 | 0.0 | 0.00 | 0.00 | 0.00 | 85 | 1010.0 | |
| 20260506134017 | 64 | 0.0 | 0.0 | 0.00 | 0.00 | 0.00 | 84 | 1010.2 | |
| 20260506133036 | 64 | 0.0 | 0.0 | 0.00 | 0.00 | 0.00 | 84 | 1009.9 | |
| 20260506132016 | 64 | 0.0 | 0.0 | 0.00 | 0.00 | 0.00 | 85 | 1009.8 | |
| 20260506131016 | 64 | 0.0 | 0.0 | 0.00 | 0.00 | 0.00 | 85 | 1009.9 | |
| 20260506130016 | 64 | 0.0 | 0.0 | 0.00 | 0.00 | 0.00 | 85 | 1010.0 | |
| 20260506125016 | 64 | 0.0 | 0.0 | 0.00 | 0.00 | 0.00 | 83 | 1010.0 | |
| 20260506124016 | 64 | 0.0 | 0.0 | 0.00 | 0.00 | 0.00 | 82 | 1010.2 | |
| 20260506123016 | 64 | 0.0 | 0.0 | 0.00 | 0.00 | 0.00 | 82 | 1010.3 | |
| 20260506122036 | 65 | 0.0 | 0.0 | 0.00 | 0.00 | 0.00 | 82 | 1010.2 | |
| 20260506121016 | 65 | 0.0 | 0.0 | 0.00 | 0.00 | 0.00 | 82 | 1010.2 | |
| 20260506120016 | 65 | 0.0 | 0.0 | 0.00 | 0.00 | 0.00 | 82 | 1010.0 | |
| 20260506115016 | 65 | 0.0 | 0.0 | 0.00 | 0.00 | 0.00 | 82 | 1009.9 | |
| 20260506114016 | 65 | 0.0 | 0.0 | 0.00 | 0.00 | 0.00 | 82 | 1009.9 | |
| 20260506113016 | 65 | 0.0 | 0.0 | 0.00 | 0.00 | 0.00 | 82 | 1009.8 | |
| 20260506112036 | 64 | 0.0 | 0.0 | 0.00 | 0.00 | 0.00 | 82 | 1009.6 | |
| 20260506111016 | 64 | 0.0 | 0.0 | 0.00 | 0.00 | 0.00 | 82 | 1009.6 | |
| 20260506110036 | 64 | 0.0 | 0.0 | 0.00 | 0.00 | 0.00 | 82 | 1009.6 | |
| 20260506105016 | 64 | 0.0 | 0.0 | 0.00 | 0.00 | 0.00 | 83 | 1009.6 | |
| 20260506104016 | 64 | 0.0 | 0.0 | 0.00 | 0.00 | 0.00 | 83 | 1009.5 | |
| 20260506103038 | 64 | 0.0 | 0.0 | 0.00 | 0.00 | 0.00 | 83 | 1009.4 | |
| 20260506102018 | 64 | 0.0 | 0.0 | 0.00 | 0.00 | 0.00 | 83 | 1009.6 | |
| 20260506101037 | 64 | 0.0 | 0.0 | 0.00 | 0.00 | 0.00 | 82 | 1009.5 | |
| 20260506100018 | 64 | 0.0 | 0.0 | 0.00 | 0.00 | 0.00 | 82 | 1009.4 | |
| 20260506095018 | 64 | 0.0 | 0.0 | 0.00 | 0.00 | 0.00 | 82 | 1009.5 | |
| 20260506094017 | 64 | 0.0 | 0.0 | 0.00 | 0.00 | 0.00 | 82 | 1009.5 | |
| 20260506093018 | 64 | 0.0 | 0.0 | 0.00 | 0.00 | 0.00 | 82 | 1009.5 | |
| 20260506092017 | 65 | 0.0 | 0.0 | 0.00 | 0.00 | 0.00 | 81 | 1009.5 | |
| 20260506091038 | 65 | 0.0 | 0.0 | 0.00 | 0.00 | 0.00 | 81 | 1009.7 | |
| 20260506090017 | 65 | 0.0 | 0.0 | 0.00 | 0.00 | 0.00 | 81 | 1009.7 | |
| 20260506085017 | 65 | 0.0 | 0.0 | 0.00 | 0.00 | 0.00 | 81 | 1009.7 | |
| 20260506084017 | 65 | 0.0 | 0.0 | 0.00 | 0.00 | 0.00 | 80 | 1009.7 | |
| 20260506083017 | 66 | 0.0 | 0.0 | 0.00 | 0.00 | 0.00 | 79 | 1009.7 | |
| 20260506082017 | 66 | 0.0 | 0.0 | 0.00 | 0.00 | 0.00 | 79 | 1009.6 | |
| 20260506081017 | 66 | 0.0 | 0.0 | 0.00 | 0.00 | 0.00 | 78 | 1009.6 | |
| 20260506073018 | 67 | 0.0 | 0.0 | 0.00 | 0.00 | 0.00 | 77 | 1009.9 | |
| 20260506072038 | 67 | 0.0 | 0.0 | 0.00 | 0.00 | 0.00 | 77 | 1009.9 | |
| 20260506071017 | 67 | 0.0 | 0.0 | 0.00 | 0.00 | 0.00 | 77 | 1010.0 | |
| 20260506062017 | 67 | 0.0 | 0.0 | 0.00 | 0.00 | 0.00 | 75 | 1010.3 | |
| 20260506061017 | 67 | 0.0 | 0.0 | 0.00 | 0.00 | 0.00 | 75 | 1010.3 | |
| 20260506051017 | 67 | 0.0 | 0.0 | 0.00 | 0.00 | 0.00 | 72 | 1010.7 | |
| 20260506045037 | 67 | 0.0 | 0.0 | 0.00 | 0.00 | 0.00 | 71 | 1010.8 | |
| 20260506044017 | 67 | 0.0 | 0.0 | 0.00 | 0.00 | 0.00 | 71 | 1010.7 | |
| 20260506043037 | 67 | 0.0 | 0.0 | 0.00 | 0.00 | 0.00 | 71 | 1010.7 | |
| 20260506042017 | 67 | 0.0 | 0.0 | 0.00 | 0.00 | 0.00 | 71 | 1010.8 | |
| 20260506041016 | 67 | 0.0 | 0.0 | 0.00 | 0.00 | 0.00 | 70 | 1010.8 |